• In Uzbekistan
  • List of Countries
  • For 7 days
  • Water Temperature
  • Satellite Maps
  • Weather Map
  • Weather Widgets
  • user-avatar
    Login

    Hourly Weather Roma

    Today, 25 September, Tuesday

    Time Temperature Precipitation Wind Pressure Humidity
    00:00 +18°C° 0 mm 2 mps 626 mmHg 58%
    01:00 +17°C° 0 mm 2 mps 626 mmHg 60%
    02:00 +16°C° 0 mm 1 mps 625 mmHg 60%
    03:00 +16°C° 0 mm 2 mps 625 mmHg 59%
    04:00 +16°C° 0 mm 2 mps 625 mmHg 59%
    05:00 +16°C° 0 mm 2 mps 624 mmHg 58%
    06:00 +17°C° 0 mm 3 mps 625 mmHg 53%
    07:00 +19°C° 0 mm 4 mps 626 mmHg 48%
    08:00 +20°C° 0 mm 6 mps 626 mmHg 44%
    09:00 +21°C° 0 mm 6 mps 626 mmHg 40%
    10:00 +23°C° 0 mm 7 mps 626 mmHg 35%
    11:00 +26°C° 0 mm 7 mps 626 mmHg 30%
    12:00 +27°C° 0 mm 8 mps 626 mmHg 26%
    13:00 +28°C° 0 mm 9 mps 625 mmHg 22%
    14:00 +28°C° 0 mm 10 mps 625 mmHg 21%
    15:00 +28°C° 0 mm 9 mps 625 mmHg 20%
    16:00 +28°C° 0 mm 8 mps 625 mmHg 19%
    17:00 +28°C° 0 mm 7 mps 625 mmHg 18%
    18:00 +26°C° 0 mm 6 mps 625 mmHg 19%
    19:00 +25°C° 0 mm 5 mps 624 mmHg 21%
    20:00 +24°C° 0 mm 3 mps 624 mmHg 22%
    21:00 +22°C° 0 mm 3 mps 624 mmHg 23%
    22:00 +22°C° 0 mm 3 mps 625 mmHg 23%
    23:00 +21°C° 0 mm 3 mps 625 mmHg 23%

    Tomorrow, 26 September, Wednesday

    Time Temperature Precipitation Wind Pressure Humidity
    00:00 +20°C° 0 mm 2 mps 624 mmHg 25%
    01:00 +19°C° 0 mm 2 mps 624 mmHg 27%
    02:00 +19°C° 0 mm 1 mps 624 mmHg 29%
    03:00 +18°C° 0 mm 1 mps 624 mmHg 31%
    04:00 +16°C° 0 mm 1 mps 624 mmHg 33%
    05:00 +14°C° 0 mm 0 mps 623 mmHg 35%
    06:00 +18°C° 0 mm 1 mps 624 mmHg 31%
    07:00 +20°C° 0 mm 1 mps 625 mmHg 27%
    08:00 +21°C° 0 mm 1 mps 626 mmHg 23%
    09:00 +23°C° 0 mm 2 mps 626 mmHg 21%
    10:00 +24°C° 0 mm 3 mps 627 mmHg 19%
    11:00 +26°C° 0 mm 4 mps 627 mmHg 17%
    12:00 +27°C° 0 mm 5 mps 627 mmHg 16%
    13:00 +27°C° 0 mm 6 mps 627 mmHg 16%
    14:00 +28°C° 0 mm 7 mps 626 mmHg 15%
    15:00 +28°C° 0 mm 7 mps 626 mmHg 15%
    16:00 +27°C° 0 mm 6 mps 626 mmHg 15%
    17:00 +27°C° 0 mm 6 mps 626 mmHg 16%
    18:00 +25°C° 0 mm 4 mps 625 mmHg 19%
    19:00 +21°C° 0 mm 3 mps 625 mmHg 22%
    20:00 +20°C° 0 mm 1 mps 625 mmHg 25%
    21:00 +20°C° 0 mm 1 mps 625 mmHg 26%
    22:00 +19°C° 0 mm 1 mps 625 mmHg 26%
    23:00 +18°C° 0 mm 1 mps 625 mmHg 26%

    Day after tomorrow, 27 September, Thursday

    Time Temperature Precipitation Wind Pressure Humidity
    00:00 +18°C° 0 mm 1 mps 624 mmHg 27%
    01:00 +16°C° 0 mm 1 mps 624 mmHg 27%
    02:00 +16°C° 0 mm 1 mps 624 mmHg 27%
    03:00 +15°C° 0 mm 1 mps 624 mmHg 28%
    04:00 +15°C° 0 mm 1 mps 624 mmHg 28%
    05:00 +15°C° 0 mm 1 mps 624 mmHg 29%
    06:00 +18°C° 0 mm 1 mps 625 mmHg 26%
    07:00 +19°C° 0 mm 2 mps 626 mmHg 23%
    08:00 +21°C° 0 mm 2 mps 627 mmHg 21%
    09:00 +24°C° 0 mm 3 mps 627 mmHg 20%
    10:00 +26°C° 0 mm 5 mps 627 mmHg 19%
    11:00 +28°C° 0 mm 7 mps 628 mmHg 17%
    12:00 +28°C° 0 mm 7 mps 627 mmHg 15%
    13:00 +29°C° 0 mm 8 mps 627 mmHg 13%
    14:00 +31°C° 0 mm 9 mps 627 mmHg 11%
    15:00 +29°C° 0 mm 9 mps 627 mmHg 11%
    16:00 +28°C° 0 mm 8 mps 626 mmHg 11%
    17:00 +28°C° 0 mm 8 mps 626 mmHg 11%
    18:00 +24°C° 0 mm 6 mps 626 mmHg 12%
    19:00 +22°C° 0 mm 4 mps 626 mmHg 13%
    20:00 +20°C° 0 mm 3 mps 625 mmHg 14%
    21:00 +19°C° 0 mm 2 mps 625 mmHg 15%
    22:00 +19°C° 0 mm 1 mps 625 mmHg 16%
    23:00 +18°C° 0 mm 1 mps 625 mmHg 16%

    28 September, Friday

    Time Temperature Precipitation Wind Pressure Humidity
    00:00 +18°C° 0 mm 1 mps 624 mmHg 17%
    01:00 +16°C° 0 mm 1 mps 624 mmHg 17%
    02:00 +16°C° 0 mm 1 mps 624 mmHg 17%
    03:00 +15°C° 0 mm 1 mps 623 mmHg 18%
    04:00 +15°C° 0 mm 1 mps 623 mmHg 18%
    05:00 +15°C° 0 mm 1 mps 623 mmHg 18%
    06:00 +18°C° 0 mm 1 mps 624 mmHg 17%
    07:00 +20°C° 0 mm 2 mps 625 mmHg 16%
    08:00 +23°C° 0 mm 2 mps 627 mmHg 15%
    09:00 +23°C° 0 mm 4 mps 627 mmHg 16%
    10:00 +25°C° 0 mm 5 mps 627 mmHg 18%
    11:00 +26°C° 0 mm 7 mps 627 mmHg 20%
    12:00 +27°C° 0 mm 8 mps 627 mmHg 19%
    13:00 +28°C° 0 mm 9 mps 627 mmHg 18%
    14:00 +28°C° 0 mm 10 mps 627 mmHg 17%
    15:00 +28°C° 0 mm 9 mps 627 mmHg 16%
    16:00 +27°C° 0 mm 9 mps 627 mmHg 15%
    17:00 +26°C° 0 mm 8 mps 627 mmHg 14%
    18:00 +23°C° 0 mm 7 mps 627 mmHg 16%
    19:00 +21°C° 0 mm 5 mps 627 mmHg 17%
    20:00 +19°C° 0 mm 3 mps 627 mmHg 18%
    21:00 +18°C° 0 mm 3 mps 627 mmHg 20%
    22:00 +17°C° 0 mm 2 mps 627 mmHg 22%
    23:00 +15°C° 0 mm 2 mps 627 mmHg 23%

    29 September, Saturday

    Time Temperature Precipitation Wind Pressure Humidity
    00:00 +15°C° 0 mm 1 mps 627 mmHg 25%
    01:00 +14°C° 0 mm 1 mps 626 mmHg 27%
    02:00 +13°C° 0 mm 1 mps 626 mmHg 29%
    03:00 +12°C° 0 mm 1 mps 626 mmHg 31%
    04:00 +12°C° 0 mm 1 mps 626 mmHg 34%
    05:00 +11°C° 0 mm 1 mps 626 mmHg 37%
    06:00 +13°C° 0 mm 1 mps 628 mmHg 35%
    07:00 +15°C° 0 mm 1 mps 629 mmHg 32%
    08:00 +18°C° 0 mm 1 mps 630 mmHg 30%
    09:00 +20°C° 0 mm 1 mps 631 mmHg 25%
    10:00 +22°C° 0 mm 1 mps 631 mmHg 20%
    11:00 +24°C° 0 mm 1 mps 631 mmHg 15%
    12:00 +25°C° 0 mm 2 mps 631 mmHg 13%
    13:00 +26°C° 0 mm 2 mps 631 mmHg 12%
    14:00 +27°C° 0 mm 3 mps 631 mmHg 10%
    15:00 +27°C° 0 mm 3 mps 631 mmHg 11%
    16:00 +26°C° 0 mm 3 mps 631 mmHg 11%
    17:00 +26°C° 0 mm 2 mps 631 mmHg 12%
    18:00 +24°C° 0 mm 2 mps 631 mmHg 15%
    19:00 +21°C° 0 mm 2 mps 631 mmHg 18%
    20:00 +19°C° 0 mm 2 mps 631 mmHg 21%
    21:00 +19°C° 0 mm 1 mps 631 mmHg 28%
    22:00 +18°C° 0 mm 1 mps 631 mmHg 35%
    23:00 +16°C° 0 mm 1 mps 631 mmHg 41%

    30 September, Sunday

    Time Temperature Precipitation Wind Pressure Humidity
    00:00 +15°C° 0 mm 1 mps 630 mmHg 47%
    01:00 +15°C° 0 mm 1 mps 630 mmHg 53%
    02:00 +14°C° 0 mm 1 mps 630 mmHg 59%
    03:00 +14°C° 0 mm 1 mps 630 mmHg 64%
    04:00 +13°C° 0 mm 1 mps 630 mmHg 68%
    05:00 +13°C° 0 mm 1 mps 630 mmHg 72%
    06:00 +14°C° 0 mm 2 mps 631 mmHg 68%
    07:00 +16°C° 0 mm 2 mps 631 mmHg 64%
    08:00 +17°C° 0 mm 2 mps 632 mmHg 60%
    09:00 +19°C° 0 mm 3 mps 632 mmHg 55%
    10:00 +21°C° 0 mm 3 mps 632 mmHg 50%
    11:00 +22°C° 0 mm 4 mps 632 mmHg 45%
    12:00 +23°C° 0 mm 4 mps 632 mmHg 40%
    13:00 +25°C° 0 mm 4 mps 631 mmHg 35%
    14:00 +27°C° 0 mm 4 mps 631 mmHg 31%
    15:00 +27°C° 0 mm 4 mps 631 mmHg 29%
    16:00 +26°C° 0 mm 4 mps 630 mmHg 28%
    17:00 +26°C° 0 mm 3 mps 630 mmHg 27%
    18:00 +25°C° 0 mm 3 mps 630 mmHg 31%
    19:00 +23°C° 0 mm 2 mps 630 mmHg 35%
    20:00 +21°C° 0 mm 1 mps 629 mmHg 39%
    21:00 +21°C° 0 mm 1 mps 629 mmHg 40%
    22:00 +20°C° 0 mm 1 mps 629 mmHg 41%
    23:00 +20°C° 0 mm 1 mps 629 mmHg 41%
    Show more